Volver al catálogo

THORAD AGENA D DEB

ActivoLEO
NORAD 17658·DEBRIS·🇺🇸 United States

Lanzado Sep 30, 1969 desde Vandenberg Space Force Base

Loading…

Próximos Pases (próximas 24 horas)

TLE

ActualizadoSource: Space-Track

Época: Sep 13, 2026, 20:09 UTC

1 17658U 69082KU  26256.83990142  .00000278  00000-0  22757-3 0  9992
2 17658  70.3561 282.3722 0055492 178.9678 355.5348 13.98153222583519

Sigue THORAD AGENA D DEB en tiempo real con AllMySat

Download on the App Store